Time,TemperatureF,DewpointF,PressureIn,WindDirection,WindDirectionDegrees,WindSpeedMPH,WindSpeedGustMPH,Humidity,HourlyPrecipIn,Conditions,Clouds,dailyrainin,SoftwareType,DateUTC
2016-08-31 00:09:00,74.4,73.0,29.98,SE,142,0.0,0.0,95,0.00,,,0.00,weatherlink.com 1.10,2016-08-31 04:09:00,
2016-08-31 00:24:00,74.1,73.0,29.97,SE,142,0.0,0.0,95,0.00,,,0.00,weatherlink.com 1.10,2016-08-31 04:24:00,
2016-08-31 00:40:00,73.7,72.0,29.97,SE,142,0.0,0.0,95,0.00,,,0.00,weatherlink.com 1.10,2016-08-31 04:40:00,
2016-08-31 00:54:00,73.6,72.0,29.97,SE,142,0.0,0.0,95,0.00,,,0.00,weatherlink.com 1.10,2016-08-31 04:54:00,
2016-08-31 01:10:00,73.0,72.0,29.98,SE,142,0.0,0.0,96,0.00,,,0.00,weatherlink.com 1.10,2016-08-31 05:10:00,
2016-08-31 01:25:00,72.7,72.0,29.97,SE,142,0.0,0.0,96,0.00,,,0.00,weatherlink.com 1.10,2016-08-31 05:25:00,
2016-08-31 01:39:00,72.6,71.0,29.97,SE,142,0.0,0.0,96,0.00,,,0.00,weatherlink.com 1.10,2016-08-31 05:39:00,
2016-08-31 01:55:00,72.5,71.0,29.98,SE,142,0.0,0.0,96,0.00,,,0.00,weatherlink.com 1.10,2016-08-31 05:55:00,
2016-08-31 02:11:00,72.0,71.0,29.98,SE,142,0.0,0.0,96,0.00,,,0.00,weatherlink.com 1.10,2016-08-31 06:11:00,
2016-08-31 02:25:00,72.3,71.0,29.98,SE,142,0.0,0.0,97,0.00,,,0.00,weatherlink.com 1.10,2016-08-31 06:25:00,
2016-08-31 02:40:00,72.2,71.0,29.98,SE,142,0.0,0.0,96,0.00,,,0.00,weatherlink.com 1.10,2016-08-31 06:40:00,
2016-08-31 02:56:00,72.0,71.0,29.98,SE,142,0.0,0.0,97,0.00,,,0.00,weatherlink.com 1.10,2016-08-31 06:56:00,
2016-08-31 03:10:00,71.8,71.0,29.98,SE,142,0.0,0.0,97,0.00,,,0.00,weatherlink.com 1.10,2016-08-31 07:10:00,
2016-08-31 03:25:00,71.5,71.0,29.97,SE,142,0.0,0.0,97,0.00,,,0.00,weatherlink.com 1.10,2016-08-31 07:25:00,
2016-08-31 03:41:00,71.6,71.0,29.97,SE,142,0.0,0.0,97,0.00,,,0.00,weatherlink.com 1.10,2016-08-31 07:41:00,
2016-08-31 03:56:00,71.3,70.0,29.97,SE,142,0.0,0.0,97,0.00,,,0.00,weatherlink.com 1.10,2016-08-31 07:56:00,
2016-08-31 04:10:00,71.1,70.0,29.96,SE,142,0.0,0.0,97,0.00,,,0.00,weatherlink.com 1.10,2016-08-31 08:10:00,
2016-08-31 04:26:00,70.9,70.0,29.96,SE,142,0.0,0.0,97,0.00,,,0.00,weatherlink.com 1.10,2016-08-31 08:26:00,
2016-08-31 04:41:00,70.9,70.0,29.96,SE,142,0.0,0.0,97,0.00,,,0.00,weatherlink.com 1.10,2016-08-31 08:41:00,
2016-08-31 04:55:00,70.8,70.0,29.96,SE,142,0.0,0.0,97,0.00,,,0.00,weatherlink.com 1.10,2016-08-31 08:55:00,
2016-08-31 05:11:00,70.6,70.0,29.96,SE,142,0.0,0.0,97,0.00,,,0.00,weatherlink.com 1.10,2016-08-31 09:11:00,
2016-08-31 05:26:00,70.6,70.0,29.96,SE,142,0.0,0.0,97,0.00,,,0.00,weatherlink.com 1.10,2016-08-31 09:26:00,
2016-08-31 05:42:00,70.4,70.0,29.96,SE,142,0.0,0.0,97,0.00,,,0.00,weatherlink.com 1.10,2016-08-31 09:42:00,
2016-08-31 05:56:00,70.4,70.0,29.96,SE,142,0.0,0.0,98,0.00,,,0.00,weatherlink.com 1.10,2016-08-31 09:56:00,
2016-08-31 06:11:00,70.1,69.0,29.96,SE,142,0.0,0.0,97,0.00,,,0.00,weatherlink.com 1.10,2016-08-31 10:11:00,
2016-08-31 06:27:00,69.9,69.0,29.96,SE,142,0.0,0.0,97,0.00,,,0.00,weatherlink.com 1.10,2016-08-31 10:27:00,
2016-08-31 06:42:00,69.8,69.0,29.96,SE,142,0.0,0.0,97,0.00,,,0.00,weatherlink.com 1.10,2016-08-31 10:42:00,
2016-08-31 06:56:00,69.8,69.0,29.96,SE,142,0.0,0.0,97,0.00,,,0.00,weatherlink.com 1.10,2016-08-31 10:56:00,
2016-08-31 07:11:00,70.1,69.0,29.96,SE,142,0.0,0.0,97,0.00,,,0.00,weatherlink.com 1.10,2016-08-31 11:11:00,
2016-08-31 07:27:00,70.5,70.0,29.96,SE,142,0.0,0.0,98,0.00,,,0.00,weatherlink.com 1.10,2016-08-31 11:27:00,
2016-08-31 07:42:00,71.7,71.0,29.96,SE,142,0.0,0.0,98,0.00,,,0.00,weatherlink.com 1.10,2016-08-31 11:42:00,
2016-08-31 07:56:00,73.6,73.0,29.96,SE,142,0.0,0.0,98,0.01,,,0.01,weatherlink.com 1.10,2016-08-31 11:56:00,
2016-08-31 08:12:00,75.7,75.0,29.96,NNE,33,0.0,0.0,98,0.01,,,0.01,weatherlink.com 1.10,2016-08-31 12:12:00,
2016-08-31 08:28:00,76.9,76.0,29.96,NNW,333,0.0,0.0,97,0.01,,,0.01,weatherlink.com 1.10,2016-08-31 12:28:00,
2016-08-31 08:42:00,77.7,77.0,29.95,NNW,331,0.0,4.0,96,0.01,,,0.01,weatherlink.com 1.10,2016-08-31 12:42:00,
2016-08-31 08:57:00,79.3,77.0,29.95,NE,53,0.0,3.0,92,0.00,,,0.01,weatherlink.com 1.10,2016-08-31 12:57:00,
2016-08-31 09:13:00,81.6,76.0,29.96,WNW,285,0.0,4.0,83,0.00,,,0.01,weatherlink.com 1.10,2016-08-31 13:13:00,
2016-08-31 09:27:00,82.7,75.0,29.96,North,8,3.0,6.0,78,0.00,,,0.01,weatherlink.com 1.10,2016-08-31 13:27:00,
2016-08-31 09:43:00,84.1,75.0,29.96,ESE,110,1.0,4.0,75,0.00,,,0.01,weatherlink.com 1.10,2016-08-31 13:43:00,
2016-08-31 09:58:00,84.4,74.0,29.96,NW,313,0.0,3.0,70,0.00,,,0.01,weatherlink.com 1.10,2016-08-31 13:58:00,
2016-08-31 10:13:00,85.7,73.0,29.96,WNW,295,2.0,6.0,65,0.00,,,0.01,weatherlink.com 1.10,2016-08-31 14:13:00,
2016-08-31 10:29:00,86.8,73.0,29.96,NNW,330,0.0,6.0,64,0.00,,,0.01,weatherlink.com 1.10,2016-08-31 14:29:00,
2016-08-31 10:44:00,88.0,73.0,29.97,NE,50,1.0,5.0,62,0.00,,,0.01,weatherlink.com 1.10,2016-08-31 14:44:00,
2016-08-31 10:58:00,87.5,70.0,29.96,North,7,2.0,6.0,57,0.00,,,0.01,weatherlink.com 1.10,2016-08-31 14:58:00,
2016-08-31 11:14:00,88.5,72.0,29.96,NE,35,1.0,5.0,59,0.00,,,0.01,weatherlink.com 1.10,2016-08-31 15:14:00,
2016-08-31 11:29:00,88.7,72.0,29.95,ESE,117,0.0,1.0,58,0.00,,,0.01,weatherlink.com 1.10,2016-08-31 15:29:00,
2016-08-31 11:43:00,89.1,71.0,29.95,WSW,253,0.0,3.0,56,0.00,,,0.01,weatherlink.com 1.10,2016-08-31 15:43:00,
2016-08-31 11:59:00,88.2,72.0,29.94,NNW,336,1.0,4.0,58,0.00,,,0.01,weatherlink.com 1.10,2016-08-31 15:59:00,
2016-08-31 12:15:00,89.5,73.0,29.94,SSW,203,0.0,1.0,58,0.00,,,0.01,weatherlink.com 1.10,2016-08-31 16:15:00,
2016-08-31 12:29:00,89.5,70.0,29.93,NW,307,0.0,0.0,52,0.00,,,0.01,weatherlink.com 1.10,2016-08-31 16:29:00,
2016-08-31 12:44:00,89.4,71.0,29.93,NNW,338,0.0,3.0,55,0.00,,,0.01,weatherlink.com 1.10,2016-08-31 16:44:00,
2016-08-31 12:59:00,88.5,70.0,29.93,ESE,104,2.0,6.0,55,0.00,,,0.01,weatherlink.com 1.10,2016-08-31 16:59:00,
2016-08-31 13:14:00,87.5,71.0,29.92,NNE,24,0.0,3.0,58,0.00,,,0.01,weatherlink.com 1.10,2016-08-31 17:14:00,
2016-08-31 13:30:00,87.3,70.0,29.92,East,97,0.0,4.0,56,0.00,,,0.01,weatherlink.com 1.10,2016-08-31 17:30:00,
2016-08-31 13:44:00,86.6,70.0,29.91,ENE,73,0.0,3.0,57,0.00,,,0.01,weatherlink.com 1.10,2016-08-31 17:44:00,
2016-08-31 14:01:00,87.2,70.0,29.91,WSW,245,1.0,4.0,57,0.00,,,0.01,weatherlink.com 1.10,2016-08-31 18:01:00,
2016-08-31 14:15:00,88.4,71.0,29.91,East,94,2.0,6.0,56,0.00,,,0.01,weatherlink.com 1.10,2016-08-31 18:15:00,
2016-08-31 14:30:00,87.1,70.0,29.90,East,83,2.0,7.0,57,0.00,,,0.01,weatherlink.com 1.10,2016-08-31 18:30:00,
2016-08-31 14:45:00,87.4,70.0,29.89,NE,39,2.0,7.0,56,0.00,,,0.01,weatherlink.com 1.10,2016-08-31 18:45:00,
2016-08-31 15:01:00,88.8,69.0,29.89,SSW,207,1.0,5.0,53,0.00,,,0.01,weatherlink.com 1.10,2016-08-31 19:01:00,
2016-08-31 15:15:00,88.4,70.0,29.88,East,92,1.0,7.0,54,0.00,,,0.01,weatherlink.com 1.10,2016-08-31 19:15:00,
2016-08-31 15:30:00,88.1,71.0,29.88,ESE,102,0.0,4.0,57,0.00,,,0.01,weatherlink.com 1.10,2016-08-31 19:30:00,
2016-08-31 15:46:00,87.2,70.0,29.88,SE,143,0.0,5.0,57,0.00,,,0.01,weatherlink.com 1.10,2016-08-31 19:46:00,
2016-08-31 16:01:00,87.2,70.0,29.88,SE,127,1.0,6.0,56,0.00,,,0.01,weatherlink.com 1.10,2016-08-31 20:01:00,
2016-08-31 16:16:00,85.8,70.0,29.87,East,83,1.0,5.0,60,0.00,,,0.01,weatherlink.com 1.10,2016-08-31 20:16:00,
2016-08-31 16:31:00,85.3,71.0,29.88,ESE,105,0.0,7.0,62,0.00,,,0.01,weatherlink.com 1.10,2016-08-31 20:31:00,
2016-08-31 16:46:00,84.5,70.0,29.88,SSW,209,2.0,10.0,61,0.00,,,0.01,weatherlink.com 1.10,2016-08-31 20:46:00,
2016-08-31 17:01:00,84.6,67.0,29.88,SE,136,1.0,7.0,56,0.00,,,0.01,weatherlink.com 1.10,2016-08-31 21:01:00,
2016-08-31 17:16:00,83.8,68.0,29.87,West,267,0.0,5.0,60,0.00,,,0.01,weatherlink.com 1.10,2016-08-31 21:16:00,
2016-08-31 17:32:00,83.3,70.0,29.87,ESE,111,3.0,6.0,65,0.00,,,0.01,weatherlink.com 1.10,2016-08-31 21:32:00,
2016-08-31 17:46:00,83.4,70.0,29.88,East,82,2.0,4.0,65,0.00,,,0.01,weatherlink.com 1.10,2016-08-31 21:46:00,
2016-08-31 18:01:00,82.5,70.0,29.88,ESE,115,2.0,5.0,65,0.00,,,0.01,weatherlink.com 1.10,2016-08-31 22:01:00,
2016-08-31 18:16:00,82.3,70.0,29.88,ESE,107,0.0,4.0,67,0.00,,,0.01,weatherlink.com 1.10,2016-08-31 22:16:00,
2016-08-31 18:32:00,81.9,71.0,29.88,East,95,0.0,6.0,69,0.00,,,0.01,weatherlink.com 1.10,2016-08-31 22:32:00,
2016-08-31 18:46:00,81.3,71.0,29.87,SE,134,2.0,7.0,71,0.00,,,0.01,weatherlink.com 1.10,2016-08-31 22:46:00,
2016-08-31 19:02:00,80.6,71.0,29.87,ENE,72,2.0,2.0,73,0.00,,,0.01,weatherlink.com 1.10,2016-08-31 23:02:00,
2016-08-31 19:16:00,80.1,72.0,29.88,ESE,115,0.0,4.0,75,0.00,,,0.01,weatherlink.com 1.10,2016-08-31 23:16:00,
2016-08-31 19:32:00,79.6,72.0,29.88,SE,134,0.0,1.0,77,0.00,,,0.01,weatherlink.com 1.10,2016-08-31 23:32:00,
2016-08-31 19:46:00,78.8,72.0,29.88,East,87,0.0,3.0,79,0.00,,,0.01,weatherlink.com 1.10,2016-08-31 23:46:00,
2016-08-31 20:02:00,78.1,72.0,29.88,SSE,148,0.0,2.0,80,0.00,,,0.01,weatherlink.com 1.10,2016-09-01 00:02:00,
2016-08-31 20:18:00,77.6,72.0,29.89,ESE,108,1.0,1.0,82,0.00,,,0.01,weatherlink.com 1.10,2016-09-01 00:18:00,
2016-08-31 20:32:00,77.3,72.0,29.89,SSW,200,0.0,1.0,83,0.00,,,0.01,weatherlink.com 1.10,2016-09-01 00:32:00,